Location: Gleizolles
(44.4833°N, 6.7667°E)
Time: 03:06:01
(UTC+00:00)

Vanguard 1 Rocket - Pass Details

Date: 26 June 2024
Orbit: 650 x 4219 km, 34.3° (Epoch: 15 July)

Event Time Altitude Azimuth Distance (km) Brightness Sun altitude
Rises 23:42:00 0° 225° (SW) 4,636 - -22.2°
Reaches altitude 10° 23:44:40 10° 219° (SW) 4,001 - -22.2°
Exits shadow 23:49:03 29° 200° (SSW) 3,280 9.6 -22.1°
Maximum altitude 23:55:20 45° 150° (SSE) 3,261 9.8 -22.1°
Drops below altitude 10° 00:14:24 10° 88° (E) 6,932 12.0 -21.6°
Sets 00:20:55 0° 84° (E) 8,270 12.5 -21.4°
